Regional Weather Roundup
Issued by NWS Kansas City/Pleasant Hill, MO

Home | Current Version | Previous Version | Graphics & Text | Print | Product List | Glossary Off
Versions: 1 2 3 4 5 6 7 8 9 10 11 12 13 14 15 16 17 18 19 20 21 22 23 24 25 26 27 28 29 30 31 32 33 34 35 36 37 38 39 40 41 42 43 44 45 46 47 48 49 50

296
ASUS43 KEAX 262210
RWREAX

WEATHER ROUNDUP FOR EASTERN KANSAS AND NORTHWEST MISSOURI
NATIONAL WEATHER SERVICE KANSAS CITY/PLEASANT HILL MO
500 PM CDT TUE JUL 26 2016

KSZ040-057-103>105-MOZ028-029-037-043-262300-
...KANSAS CITY METROPOLITAN AREA...

CITY           SKY/WX    TMP DP  RH WIND       PRES   REMARKS
K.C. INTL      MOSUNNY   87  66  49 E10       29.99F
K.C. DOWNTOWN  SUNNY     88  66  48 E7        29.96F HX  90
LEES SUMMIT    SUNNY     85  68  56 NE8       29.99F
OLATHE - IXD   SUNNY     89  66  46 E7        29.98F HX  91
OLATHE - OJC   SUNNY     86  66  51 E6        29.98F
LAWRENCE       SUNNY     88  68  51 E6        29.97F HX  91

$$

MOZ001>008-011>017-020>025-030>033-038>040-044>046-053-054-262300-
...NORTHERN AND CENTRAL MISSOURI...

CITY           SKY/WX    TMP DP  RH WIND       PRES   REMARKS
ST. JOSEPH     SUNNY     88  66  48 NE7       29.98F HX  90
MOSBY          CLEAR     86  63  45 E5        29.98F
WHITEMAN AFB   MOSUNNY   86  69  57 E8        29.98S HX  90
CLINTON        MOSUNNY   84  72  65 NE6       29.97F
SEDALIA        PTSUNNY   88  71  57 NE6       30.00S HX  94
WARSAW         NOT AVBL
CHILLICOTHE      N/A     85  66  53 E5        30.00F
KIRKSVILLE     MOSUNNY   87  64  46 E9        30.01F

$$

MOZ041-047>049-056>058-063>065-088>090-097-262300-
...EASTERN AND SOUTHERN MISSOURI...

CITY           SKY/WX    TMP DP  RH WIND       PRES   REMARKS
ST. LOUIS INTL CLOUDY    90  71  53 CALM      29.98S HX  96
SPIRIT OF STL  CLOUDY    88  74  63 E6        29.96S HX  96
COLUMBIA       SUNNY     86  71  60 E5        29.99S HX  91
JEFFERSON CITY MOSUNNY   88  72  58 E6        29.96F HX  94
ROLLA          LGT RAIN  75  72  90 SE14G22   30.00R
OSAGE BEACH    CLOUDY    87  73  62 E7        29.98F HX  94
SPRINGFIELD    CLOUDY    83  75  77 S7        29.98R HX  90
BRANSON        CLOUDY    75  75 100 CALM      29.99F
JOPLIN         MOSUNNY   89  75  63 NE7       29.95S HX  99
WEST PLAINS    CLOUDY    79  73  82 NE7       30.02S

$$

IAZ060-094-KSZ022-034>040-054-083-096-NEZ052-066-093-262300-
...KANSAS...SOUTHEAST NEBRASKA AND IOWA...

CITY           SKY/WX    TMP DP  RH WIND       PRES   REMARKS
TOPEKA         SUNNY     89  66  46 E6        29.97F HX  91
MANHATTAN      SUNNY     88  68  51 E8        29.97F HX  91
EMPORIA        MOSUNNY   86  67  52 NE7       29.98F
CHANUTE        CLOUDY    88  73  61 NE7       29.96S HX  95
WICHITA        PTSUNNY   89  70  53 E10       29.95F HX  94
OMAHA          MOSUNNY   86  64  47 E8        30.01F
LINCOLN        SUNNY     88  64  44 SE10      30.01F
FALLS CITY     SUNNY     87  69  54 E7        29.99F HX  91
LAMONI         SUNNY     84  66  54 NE6       30.01F
DES MOINES     MOSUNNY   86  63  45 SE12      30.01F

$$





USA.gov is the U.S. government's official web portal to all federal, state and local government web resources and services.